Theta_e
307 308 308 308 309 309 308 308 308 308 308 309 310 310 310 311 312 318 324 320 316 315 315 318 317 320 321 322 322 322 327 328 331 332 336 333 335 339 339 342 345 346 345 348 350
309 309 310 310 310 310 309 309 309 308 309 310 310 311 311 312 319 323 321 315 314 314 320 318 320 320 321 322 322 323 326 328 332 333 333 331 328 328 332 337 341 345 347 349 349
310 311 311 311 311 310 310 309 308 309 310 310 310 311 311 317 326 325 318 315 314 315 320 319 319 320 322 322 323 323 326 328 330 330 330 330 329 327 329 333 337 342 349 349 349
311 312 312 312 312 311 309 309 310 311 312 312 311 311 312 318 330 324 319 315 315 316 318 318 319 321 322 323 323 324 323 325 327 329 329 330 328 327 328 331 335 339 348 349 349
312 312 313 312 312 311 309 310 314 311 312 311 311 311 315 324 325 320 318 314 313 317 318 319 320 321 323 323 322 322 324 323 324 325 327 327 328 327 327 328 333 337 343 349 349
313 313 313 313 312 311 309 313 315 311 311 311 311 311 316 326 324 320 318 314 320 318 320 321 322 322 323 323 323 323 323 323 323 324 326 327 328 326 329 330 332 340 343 347 348
313 313 313 313 313 311 312 315 316 316 312 312 311 312 322 324 325 322 321 320 319 319 320 320 321 321 322 324 322 322 323 324 323 323 325 325 327 327 328 330 331 339 343 346 348
313 313 313 313 313 310 315 315 316 317 319 313 312 314 323 323 324 321 320 320 319 319 320 321 320 322 322 323 322 323 324 324 325 325 325 324 327 329 329 329 330 335 342 346 347
313 313 313 313 313 311 316 316 317 318 319 316 318 326 321 320 323 322 322 322 322 321 321 321 321 323 322 323 324 324 326 327 327 327 326 325 325 334 332 330 330 339 344 345 347
313 313 313 314 313 313 317 316 315 317 320 319 322 327 323 322 322 322 323 324 323 322 323 322 322 324 324 325 326 326 326 326 327 329 329 330 332 334 336 332 334 336 340 343 346
313 313 313 314 313 315 318 319 323 324 325 326 324 326 323 322 320 322 323 324 323 323 326 324 326 328 326 326 326 325 326 327 326 329 331 331 334 336 336 337 338 339 338 340 343
313 313 313 314 313 317 319 323 322 321 323 321 322 323 322 320 321 322 323 324 324 327 327 328 329 327 326 325 325 325 326 327 328 328 330 332 333 335 336 338 339 340 341 342 341
311 312 313 314 314 317 321 322 321 321 324 321 322 322 321 322 321 322 323 324 325 328 327 330 328 325 325 325 326 326 328 327 328 330 327 327 334 337 336 335 337 339 341 343 344
308 310 313 314 317 320 323 321 320 321 326 322 322 322 322 324 322 321 322 324 326 327 327 329 326 326 326 327 327 329 326 325 326 326 328 330 332 337 335 335 337 338 339 342 343
307 308 311 313 315 319 325 320 321 321 331 322 322 323 322 324 324 321 322 324 327 327 327 328 327 326 327 328 326 328 326 326 327 327 328 328 328 337 335 335 336 337 338 341 343
307 307 310 315 315 317 319 320 322 327 329 324 324 324 324 324 322 322 323 324 325 326 327 329 328 329 330 327 327 327 328 329 330 328 329 332 327 338 336 334 334 334 336 337 339
307 308 309 310 319 317 318 321 326 327 326 325 323 324 324 323 324 323 324 324 324 326 327 328 328 329 327 328 329 328 330 332 334 332 335 331 326 336 335 332 330 331 335 334 335
308 309 309 311 317 317 320 325 326 322 326 325 323 324 324 324 324 324 325 325 326 325 328 328 330 328 327 327 330 331 330 330 333 332 332 330 330 335 332 329 328 330 333 334 334
309 315 315 319 317 319 321 324 322 322 326 325 324 323 324 324 325 325 325 326 325 327 328 327 330 328 326 326 326 329 329 332 331 331 328 328 330 330 329 329 328 329 331 333 334
309 315 317 322 317 319 323 324 323 323 326 326 325 325 325 325 325 325 326 326 326 326 327 329 330 327 327 326 325 326 330 329 330 331 332 329 328 328 333 329 329 329 331 333 333
312 317 323 319 319 320 323 323 322 322 324 326 326 326 326 326 326 326 327 327 326 326 326 327 328 330 327 327 329 327 326 326 327 328 329 328 329 331 330 329 329 328 329 332 332
316 318 323 320 322 321 322 322 319 321 323 326 326 327 327 327 327 326 326 329 327 327 326 327 330 330 330 328 326 325 325 326 327 328 329 329 329 327 328 328 327 326 328 330 335
318 317 322 321 324 324 323 323 320 320 324 325 325 326 327 327 328 326 327 327 326 328 328 330 328 330 330 330 329 328 326 326 328 330 328 326 325 330 329 328 327 326 326 327 331
317 319 318 321 322 327 325 324 322 321 322 324 326 326 327 327 329 329 329 327 326 328 322 328 330 332 332 330 328 329 327 327 328 330 329 327 326 327 328 328 327 326 326 325 325
316 319 323 323 323 325 326 325 323 324 320 322 323 326 327 328 327 327 328 328 326 322 325 331 333 330 329 328 327 326 326 325 326 327 329 328 327 326 325 325 324 325 325 324 323
317 318 318 322 325 324 321 326 324 324 324 323 324 323 324 328 329 329 328 329 328 327 328 330 331 328 329 328 327 326 326 326 325 325 325 325 326 326 324 324 325 324 325 326 325
316 315 317 319 321 324 324 324 324 323 323 324 325 325 326 326 327 328 329 329 330 329 330 331 330 329 329 328 327 328 327 328 327 327 326 327 327 327 327 326 325 324 327 327 326
Wind_Speed
11 12 12 13 13 13 13 13 13 13 11 10 9 8 7 5 4 3 3 6 9 8 5 8 8 9 9 12 9 9 9 12 13 2 11 7 3 6 2 3 3 5 6 10 18
11 12 13 13 13 14 13 13 12 11 8 7 7 6 4 3 3 7 8 5 9 9 7 9 9 10 13 11 8 11 10 9 8 7 3 3 2 4 3 8 7 7 6 15 18
12 12 13 13 14 14 14 13 11 8 7 7 6 3 4 6 3 4 3 5 10 11 7 8 7 10 13 9 10 13 14 4 3 6 5 6 7 3 4 7 6 11 14 17 18
12 13 13 14 14 14 13 11 10 8 7 6 4 3 6 6 1 4 3 6 9 10 5 8 10 13 11 8 10 10 10 6 9 5 11 10 6 5 6 5 5 3 16 16 15
13 13 14 15 14 14 13 9 9 8 5 3 2 5 8 8 5 4 5 7 10 5 8 8 10 10 10 7 3 9 4 7 10 10 12 8 11 9 9 5 7 4 12 15 14
13 14 15 16 14 14 11 8 8 7 2 1 3 6 6 10 4 6 7 11 7 8 7 5 5 6 4 4 9 3 5 7 9 14 12 12 11 4 4 4 5 4 10 13 13
13 14 15 16 14 12 9 8 7 5 3 2 3 5 4 4 6 8 10 8 8 6 5 4 3 7 2 5 6 6 10 12 10 9 8 7 11 12 11 4 5 5 7 10 11
13 14 15 16 13 11 8 10 7 2 3 2 4 6 1 6 7 9 11 8 9 7 5 4 5 10 8 3 8 12 13 11 9 5 6 9 15 17 6 6 8 7 5 6 11
13 14 15 15 12 9 8 8 3 2 1 3 5 5 7 8 9 11 11 9 8 7 7 6 7 13 7 11 12 10 10 12 8 1 2 9 12 10 4 6 7 8 4 8 10
13 14 14 15 12 7 8 5 3 1 2 4 5 7 9 13 12 13 12 7 9 8 9 10 10 11 12 14 7 6 6 2 5 6 5 3 8 8 4 3 2 4 7 8 10
14 14 14 13 11 5 7 3 3 2 10 7 11 6 12 9 12 14 12 9 10 11 14 16 12 6 8 8 9 5 6 5 6 3 8 4 7 10 11 10 7 4 2 5 9
15 14 13 12 8 2 4 4 5 5 9 10 7 6 6 10 14 14 13 13 12 15 5 10 6 7 2 1 4 4 5 6 4 2 14 7 8 6 10 13 12 10 10 7 3
15 14 12 11 4 3 3 2 6 5 8 10 11 12 12 11 13 17 15 14 13 8 11 10 13 5 6 8 9 1 9 5 4 8 10 9 8 8 11 13 14 13 14 15 10
15 14 12 6 2 4 4 3 6 3 5 11 12 10 11 9 8 15 15 10 8 12 7 4 6 7 10 4 11 10 4 4 6 9 7 4 6 9 8 12 12 14 15 18 17
15 14 11 8 6 4 1 5 5 2 6 17 16 12 14 16 16 12 14 9 12 5 9 10 10 10 12 11 6 8 4 7 7 10 8 12 7 9 29 13 10 12 12 15 15
15 15 10 8 7 8 6 6 4 7 4 10 11 13 14 13 14 16 14 10 3 4 11 10 1 7 11 3 3 4 9 11 11 12 9 2 8 10 8 5 8 13 14 13 13
15 15 12 10 3 7 5 6 7 9 12 11 16 18 17 13 11 15 17 14 10 9 10 5 12 6 9 11 9 7 10 9 9 7 9 3 7 8 15 7 8 9 12 12 11
15 14 12 12 8 6 4 7 9 4 10 13 15 15 14 13 14 17 14 13 11 13 8 8 10 11 2 8 10 4 7 7 7 5 5 7 2 7 11 6 8 8 9 8 9
15 8 8 7 8 7 10 9 7 5 7 10 11 14 13 15 6 12 14 13 8 10 5 5 4 5 1 4 7 6 8 9 9 8 7 4 6 10 7 7 5 9 4 7 6
17 7 10 10 9 9 10 15 6 2 6 8 15 15 14 14 11 12 13 6 6 4 5 3 3 8 9 6 6 10 8 6 8 3 13 4 4 4 12 7 8 7 10 5 3
10 8 6 7 8 13 10 15 11 5 6 8 14 11 13 14 16 13 10 8 5 9 8 9 4 5 6 11 3 7 9 4 5 6 9 9 6 10 6 6 2 8 9 6 4
9 9 4 10 12 16 11 14 2 9 10 7 8 8 14 11 10 14 10 5 3 4 10 9 4 9 8 7 2 7 13 2 6 4 6 6 12 5 0 3 6 12 2 6 2
8 11 3 12 9 10 12 6 10 9 10 8 8 8 6 7 8 11 5 6 3 6 4 4 7 9 13 12 9 10 12 8 6 6 13 12 9 7 5 2 4 7 7 7 5
8 5 10 15 20 11 11 12 12 7 9 6 8 4 8 8 6 8 4 2 4 4 1 2 9 11 12 12 4 7 8 8 9 9 13 12 15 7 10 7 9 14 15 13 12
8 7 5 7 14 12 11 8 12 8 12 10 10 12 11 9 12 11 10 7 7 5 6 4 12 13 16 14 14 14 18 18 17 16 16 18 19 16 14 9 9 12 15 17 20
8 6 4 12 7 10 7 12 11 8 3 11 11 13 12 11 10 10 9 11 9 9 9 5 10 12 16 15 18 19 17 20 20 20 21 20 20 17 16 19 11 14 15 14 17
6 9 8 6 10 11 13 14 9 1 3 5 5 4 10 2 4 7 6 6 6 3 9 8 9 11 15 14 16 14 14 19 19 19 19 18 17 13 9 10 9 12 9 13 13
Wind_Direction
335 334 334 329 327 325 321 317 312 310 307 299 292 293 290 270 266 256 296 226 212 184 182 181 198 206 204 222 234 236 255 252 234 186 108 147 302 107 71 277 187 70 36 129 156
337 336 335 330 330 327 323 318 312 309 299 293 296 284 263 235 203 231 262 216 186 173 152 181 197 197 208 217 212 235 234 262 21 43 53 24 343 34 274 175 162 146 102 141 155
340 338 335 332 333 330 326 324 321 315 307 301 286 259 203 191 249 141 195 150 169 161 175 217 217 205 233 221 214 216 262 333 56 251 303 310 263 55 252 245 146 166 145 158 163
341 339 335 335 335 331 331 332 328 315 298 286 262 205 189 200 326 164 153 153 169 178 216 209 206 218 243 219 212 261 247 299 246 184 241 254 341 274 268 330 72 67 147 162 164
344 339 339 336 337 333 334 333 340 328 291 245 211 180 177 225 84 157 153 151 157 154 186 182 202 230 243 220 205 249 252 235 245 250 241 266 275 287 280 6 132 150 150 164 173
343 340 340 337 339 336 329 328 347 355 11 141 168 174 198 247 138 160 146 155 162 166 193 208 266 281 295 261 246 111 289 265 231 231 230 244 246 250 191 358 156 140 158 169 177
341 342 339 338 340 333 326 322 332 359 26 92 143 181 242 78 158 161 170 170 183 200 195 238 270 235 344 203 247 248 248 210 215 220 246 264 254 247 249 305 289 152 168 165 178
338 341 337 340 339 333 326 326 317 318 27 82 152 169 40 141 166 169 172 185 193 209 242 240 248 271 254 324 228 241 222 210 118 258 160 237 258 209 112 249 271 160 131 181 178
338 337 338 339 337 332 331 336 333 320 19 110 128 206 150 168 176 179 177 180 198 217 233 253 250 250 204 239 216 210 245 117 127 330 156 220 249 65 336 280 266 110 151 201 184
336 333 338 338 335 327 339 339 338 330 121 119 203 241 177 205 180 183 191 213 201 208 216 225 222 216 218 225 277 122 113 135 114 121 234 227 46 29 19 256 188 230 191 208 193
328 332 335 338 331 331 342 345 284 204 222 259 177 287 146 162 167 186 192 201 215 213 228 202 232 216 62 20 4 20 342 41 76 72 283 42 76 65 59 59 58 7 271 196 195
322 328 332 333 328 307 10 303 11 342 272 223 214 242 159 159 178 186 188 213 205 220 207 206 221 68 46 67 258 243 238 135 98 206 274 142 133 104 102 93 78 64 57 45 113
319 324 327 331 327 269 265 315 329 322 248 171 196 196 184 191 186 181 195 222 220 207 216 288 94 127 208 188 219 9 340 81 296 153 257 276 158 0 139 114 97 72 63 61 59
319 320 322 337 336 284 264 283 330 299 261 149 188 206 180 208 176 182 201 201 236 220 220 84 118 180 232 156 292 139 57 291 250 246 260 209 282 161 147 110 85 78 60 62 61
319 317 316 305 273 259 244 319 305 272 244 149 164 151 184 208 147 196 197 211 235 215 243 116 171 208 237 74 305 59 343 282 298 263 293 221 261 134 344 95 71 69 71 72 68
317 313 306 311 272 246 277 298 307 233 207 154 154 187 185 211 194 152 186 237 325 235 235 125 355 307 38 137 274 354 250 233 234 229 230 137 299 136 153 359 92 86 82 73 72
315 306 291 264 212 270 258 262 229 251 134 157 172 178 191 180 174 174 193 202 191 210 201 174 201 130 262 233 186 231 251 246 251 240 160 230 294 85 192 97 76 74 92 87 84
315 302 278 248 234 267 241 238 251 251 192 156 182 187 195 177 173 190 194 199 230 230 233 210 175 213 163 300 338 296 333 305 295 335 154 174 312 78 93 117 101 98 97 101 104
324 312 269 264 225 221 229 219 230 243 167 189 209 193 200 184 186 195 202 209 170 223 290 221 129 112 308 308 280 159 247 17 311 256 266 215 126 175 162 158 164 139 117 126 126
329 294 239 230 211 196 233 247 274 347 318 279 199 202 197 186 211 202 192 188 150 237 295 344 258 172 140 258 217 284 10 246 223 222 264 143 202 198 168 190 184 190 177 153 180
328 255 183 201 176 212 230 233 226 173 242 241 239 213 237 191 199 198 214 138 232 184 238 265 238 173 177 228 249 180 214 236 330 316 317 301 60 63 132 163 290 213 188 154 212
284 240 164 179 205 220 228 228 3 247 209 238 295 245 234 243 205 240 220 118 128 204 221 232 274 256 226 64 309 282 288 292 276 233 255 309 292 134 327 247 234 275 308 245 196
274 274 221 191 230 214 223 230 224 227 226 215 226 230 252 238 237 242 207 67 185 225 306 169 230 248 246 218 216 246 234 246 270 291 265 276 281 110 87 284 244 273 282 290 222
275 231 199 211 249 295 216 220 206 215 268 242 272 214 208 222 231 220 179 157 213 210 46 344 250 263 282 322 339 225 228 243 263 268 277 273 284 213 192 216 231 240 253 269 271
241 251 350 197 221 235 268 242 216 181 229 212 224 234 219 222 210 225 206 140 201 162 199 241 247 253 263 274 288 280 284 282 265 246 250 275 288 292 304 314 301 317 308 289 278
287 288 257 271 291 226 190 236 237 175 242 216 239 222 243 237 246 236 205 208 208 176 229 207 256 267 274 279 276 269 261 274 269 267 270 270 267 278 286 284 306 290 282 285 271
257 271 271 238 220 238 232 224 223 238 188 316 277 230 227 114 20 19 4 27 352 262 213 229 256 254 260 273 278 269 265 263 264 265 270 268 273 282 298 292 276 282 295 280 274